Flag for Pakistan Weather past 2 weeks in Peshawar, Pakistan

Now
57 °F

Fog.


Feels Like: 57 °F
Forecast: 39 / 63 °F
Wind: No wind

Location: Peshawar Airport

Current Time: Mar 2, 2015 at 5:05:29 PM

Latest Report: Mar 2, 2015 at 4:00 PM


Visibility: 2 mi

Pressure: 29.89 "Hg

Humidity: 82%

Dew point: 52 °F

Location of PeshawarLocation

Historic Weather in Peshawar — Graph

°F

Peshawar temperature yesterday

Maximum temperature yesterday: 59 °F (at 11:00 AM)
Minimum temperature yesterday: 52 °F (at 7:00 AM)
Average temperature yesterday: 54 °F

Past Weeks' High & Low Weather Summary

 TemperatureHumidityPressure
High77 °F (Feb 22, 2:00 PM)100% (Feb 23, 11:00 AM)30.15 "Hg (Feb 23, 11:00 AM)
Low46 °F (Feb 17, 6:00 AM)31% (Feb 27, 3:00 PM)29.56 "Hg (Feb 26, 12:00 AM)
Average59 °F70%29.96 "Hg
* Reported Feb 15 4:00 PM — Mar 2 4:00 PM, Peshawar, Weather by CustomWeather, © 2015

Note: Actual official high and low records may vary slightly from our data, if they occured in-between our weather recording intervals... More about our weather records

Advertising

Peshawar weather history for previous 24 hours

 ConditionsComfort  
Time TempWeatherWind HumidityBarometerVisibility
4:00 PM
Mon, Mar 2
57 °FFog.No wind82%29.89 "Hg2 mi
3:00 PM55 °FFog.5 mph82%29.92 "Hg2 mi
1:00 PM55 °FLight rain. More clouds than sun.5 mph88%29.89 "Hg2 mi
12:00 PM54 °FCool.N/A88%N/AN/A
11:00 AM52 °FRain. More clouds than sun.5 mph88%29.89 "Hg2 mi
10:00 AM52 °FRain. More clouds than sun.7 mph88%29.89 "Hg2 mi
9:00 AM50 °FRain. More clouds than sun.5 mph94%29.86 "Hg2 mi
8:00 AM50 °FRain. Overcast.5 mph94%29.83 "Hg2 mi
7:00 AM48 °FRain. Mostly cloudy.7 mph94%29.83 "Hg2 mi
4:59 AM48 °FRain. Mostly cloudy.9 mph94%29.77 "Hg2 mi
4:00 AM48 °FRain. Mostly cloudy.9 mph94%29.77 "Hg2 mi
3:00 AM48 °FRain. Mostly cloudy.9 mph94%29.80 "Hg2 mi
2:00 AM48 °FDrizzle. Mostly cloudy.9 mph94%29.83 "Hg2 mi
1:00 AM50 °FRain. Mostly cloudy.7 mph94%29.86 "Hg2 mi
12:00 AM50 °FRain. Mostly cloudy.9 mph94%29.86 "Hg2 mi
11:00 PM
Sun, Mar 1
52 °FRain. Mostly cloudy.7 mph94%29.89 "Hg2 mi
10:00 PM52 °FDrizzle. Mostly cloudy.9 mph94%29.89 "Hg2 mi
9:00 PM52 °FDrizzle. Mostly cloudy.9 mph94%29.89 "Hg2 mi
8:00 PM52 °FRain. Mostly cloudy.9 mph94%29.89 "Hg2 mi
7:00 PM54 °FRain. Mostly cloudy.9 mph94%29.89 "Hg2 mi
6:00 PM54 °FRain. More clouds than sun.7 mph94%29.89 "Hg2 mi
5:00 PM54 °FRain. More clouds than sun.5 mph88%29.89 "Hg2 mi
Weather by CustomWeather, © 2015

See weather overviewHow to use our weather pages